| time (UTC) | temp F | wind direction | speed knots | gust knots | rain 1hr in | rain 24hr in | rain mn in | humidity % | barometer mb |
| 20260502210501 | 61 | 192 | 5.2 | 8.7 | 0.00 | 0.04 | 0.04 | 71 | 1007.5 |
| 20260502210217 | 61 | 213 | 4.3 | 8.7 | 0.00 | 0.04 | 0.04 | 71 | 1007.4 |
| 20260502205457 | 61 | 159 | 3.5 | 8.7 | 0.00 | 0.04 | 0.04 | 71 | 1007.4 |
| 20260502204956 | 61 | 183 | 4.3 | 8.7 | 0.01 | 0.04 | 0.04 | 71 | 1007.5 |
| 20260502204456 | 61 | 205 | 3.5 | 7.0 | 0.01 | 0.04 | 0.04 | 72 | 1007.4 |
| 20260502203957 | 61 | 231 | 4.3 | 7.0 | 0.01 | 0.04 | 0.04 | 72 | 1007.3 |
| 20260502203456 | 61 | 156 | 5.2 | 10.4 | 0.01 | 0.04 | 0.04 | 72 | 1007.2 |
| 20260502202952 | 61 | 184 | 4.3 | 10.4 | 0.01 | 0.04 | 0.04 | 72 | 1007.2 |
| 20260502202452 | 61 | 190 | 1.7 | 6.1 | 0.01 | 0.04 | 0.04 | 72 | 1007.2 |
| 20260502202207 | 61 | 225 | 0.9 | 5.2 | 0.01 | 0.04 | 0.04 | 72 | 1007.3 |
| 20260502201447 | 61 | 222 | 1.7 | 5.2 | 0.01 | 0.04 | 0.04 | 72 | 1007.3 |
| 20260502200946 | 61 | 222 | 2.6 | 6.1 | 0.01 | 0.04 | 0.04 | 72 | 1007.3 |
| 20260502200445 | 61 | 201 | 3.5 | 6.1 | 0.01 | 0.04 | 0.04 | 72 | 1007.0 |
| 20260502195945 | 61 | 183 | 2.6 | 6.1 | 0.01 | 0.04 | 0.04 | 72 | 1007.0 |
| 20260502195445 | 62 | 210 | 2.6 | 6.1 | 0.01 | 0.04 | 0.04 | 72 | 1007.0 |
| 20260502194946 | 62 | 225 | 2.6 | 4.3 | 0.00 | 0.03 | 0.03 | 72 | 1007.0 |
| 20260502194446 | 62 | 244 | 3.5 | 7.0 | 0.00 | 0.03 | 0.03 | 72 | 1007.3 |
| 20260502193945 | 62 | 213 | 4.3 | 7.0 | 0.00 | 0.03 | 0.03 | 72 | 1007.3 |
| 20260502193446 | 62 | 165 | 4.3 | 8.7 | 0.00 | 0.03 | 0.03 | 72 | 1007.4 |
| 20260502192945 | 62 | 172 | 3.5 | 8.7 | 0.00 | 0.03 | 0.03 | 72 | 1007.5 |
| 20260502192700 | 62 | 219 | 1.7 | 4.3 | 0.00 | 0.03 | 0.03 | 72 | 1007.5 |
| 20260502191936 | 62 | 205 | 0.9 | 3.5 | 0.00 | 0.03 | 0.03 | 72 | 1007.6 |
| 20260502191656 | 62 | 290 | 0.9 | 3.5 | 0.00 | 0.03 | 0.03 | 72 | 1007.6 |
| 20260502191154 | 62 | 205 | 0.9 | 1.7 | 0.00 | 0.03 | 0.03 | 72 | 1007.6 |
| 20260502190435 | 62 | 184 | 1.7 | 4.3 | 0.00 | 0.03 | 0.03 | 72 | 1007.6 |
| 20260502185935 | 62 | 156 | 2.6 | 4.3 | 0.00 | 0.03 | 0.03 | 72 | 1007.7 |
| 20260502185436 | 62 | 156 | 2.6 | 4.3 | 0.00 | 0.03 | 0.03 | 72 | 1007.7 |
| 20260502184935 | 62 | 170 | 2.6 | 5.2 | 0.00 | 0.03 | 0.03 | 72 | 1007.8 |
| 20260502184702 | 62 | 291 | 2.6 | 5.2 | 0.00 | 0.03 | 0.03 | 73 | 1007.7 |
| 20260502183429 | 63 | 233 | 3.5 | 5.2 | 0.00 | 0.03 | 0.03 | 72 | 1007.6 |
| 20260502182429 | 63 | 237 | 1.7 | 4.3 | 0.00 | 0.03 | 0.03 | 72 | 1007.6 |
| 20260502181929 | 63 | 194 | 2.6 | 4.3 | 0.00 | 0.03 | 0.03 | 73 | 1007.6 |
| 20260502181428 | 63 | 194 | 2.6 | 4.3 | 0.00 | 0.03 | 0.03 | 73 | 1007.4 |
| 20260502181152 | 64 | 213 | 1.7 | 4.3 | 0.00 | 0.03 | 0.03 | 73 | 1007.5 |
| 20260502180429 | 64 | 217 | 1.7 | 4.3 | 0.01 | 0.03 | 0.03 | 73 | 1007.6 |
| 20260502170423 | 65 | 147 | 0.0 | 1.7 | 0.02 | 0.02 | 0.02 | 72 | 1007.5 |
| 20260502170135 | 65 | 147 | 0.9 | 1.7 | 0.02 | 0.02 | 0.02 | 72 | 1007.6 |
| 20260502163909 | 65 | 147 | 0.9 | 6.1 | 0.02 | 0.02 | 0.02 | 72 | 1007.9 |
| 20260502163411 | 66 | 147 | 2.6 | 6.1 | 0.02 | 0.02 | 0.02 | 72 | 1008.1 |
| 20260502162909 | 66 | 155 | 3.5 | 7.0 | 0.02 | 0.02 | 0.02 | 72 | 1008.0 |
| 20260502162411 | 66 | 168 | 4.3 | 8.7 | 0.02 | 0.02 | 0.02 | 72 | 1008.0 |
| 20260502161908 | 67 | 127 | 4.3 | 8.7 | 0.02 | 0.02 | 0.02 | 72 | 1008.0 |
| 20260502161411 | 67 | 124 | 5.2 | 9.6 | 0.02 | 0.02 | 0.02 | 72 | 1008.0 |
| 20260502160908 | 67 | 121 | 3.5 | 9.6 | 0.02 | 0.02 | 0.02 | 71 | 1008.1 |
| 20260502160412 | 68 | 146 | 3.5 | 5.2 | 0.01 | 0.01 | 0.01 | 71 | 1008.3 |
| 20260502152139 | 68 | 148 | 0.9 | 6.1 | 0.00 | 0.00 | 0.00 | 71 | 1008.4 |
| 20260502151632 | 68 | 126 | 0.0 | 2.6 | 0.00 | 0.00 | 0.00 | 71 | 1008.4 |
| 20260502150901 | 68 | 111 | 0.0 | 0.9 | 0.00 | 0.00 | 0.00 | 71 | 1008.4 |
| 20260502150404 | 68 | 111 | 0.0 | 0.9 | 0.00 | 0.00 | 0.00 | 70 | 1008.5 |
| 20260502130342 | 64 | 107 | 5.2 | 11.3 | 0.00 | 0.00 | 0.00 | 71 | 1009.7 |
| 20260502123609 | 64 | 64 | 3.5 | 8.7 | 0.00 | 0.00 | 0.00 | 72 | 1009.6 |
| 20260502122842 | 64 | 85 | 2.6 | 8.7 | 0.00 | 0.00 | 0.00 | 72 | 1009.9 |
| 20260502122342 | 64 | 110 | 1.7 | 7.8 | 0.00 | 0.00 | 0.00 | 72 | 1009.9 |
| 20260502121839 | 64 | 31 | 1.7 | 7.8 | 0.00 | 0.00 | 0.00 | 72 | 1010.0 |
| 20260502121338 | 64 | 61 | 1.7 | 4.3 | 0.00 | 0.00 | 0.00 | 72 | 1010.2 |
| 20260502120835 | 65 | 47 | 2.6 | 7.8 | 0.00 | 0.00 | 0.00 | 72 | 1010.4 |
| 20260502120554 | 65 | 5 | 2.6 | 7.8 | 0.00 | 0.00 | 0.00 | 72 | 1010.4 |
| 20260502115828 | 65 | 25 | 2.6 | 7.0 | 0.00 | 0.00 | 0.00 | 72 | 1010.4 |
| 20260502114828 | 65 | 5 | 2.6 | 7.8 | 0.00 | 0.00 | 0.00 | 72 | 1010.4 |
| 20260502114327 | 65 | 27 | 2.6 | 7.8 | 0.00 | 0.00 | 0.00 | 72 | 1010.4 |
| 20260502113827 | 65 | 16 | 1.7 | 5.2 | 0.00 | 0.00 | 0.00 | 72 | 1010.7 |
| 20260502113327 | 65 | 20 | 1.7 | 4.3 | 0.00 | 0.00 | 0.00 | 72 | 1010.6 |
| 20260502112828 | 65 | 330 | 2.6 | 4.3 | 0.00 | 0.00 | 0.00 | 72 | 1010.6 |
| 20260502112322 | 65 | 161 | 3.5 | 6.1 | 0.00 | 0.00 | 0.00 | 72 | 1010.5 |
| 20260502111818 | 65 | 130 | 1.7 | 10.4 | 0.00 | 0.00 | 0.00 | 73 | 1010.4 |
| 20260502111319 | 65 | 49 | 3.5 | 10.4 | 0.00 | 0.00 | 0.00 | 73 | 1010.5 |
| 20260502110819 | 65 | 34 | 6.1 | 14.8 | 0.00 | 0.00 | 0.00 | 75 | 1010.4 |
| 20260502110318 | 65 | 300 | 6.1 | 14.8 | 0.00 | 0.00 | 0.00 | 75 | 1010.3 |
| 20260502105817 | 66 | 308 | 7.0 | 13.9 | 0.00 | 0.00 | 0.00 | 76 | 1010.6 |
| 20260502105317 | 67 | 309 | 8.7 | 13.9 | 0.00 | 0.00 | 0.00 | 79 | 1010.4 |
| 20260502104318 | 71 | 275 | 5.2 | 14.8 | 0.00 | 0.00 | 0.00 | 94 | 1010.5 |
| 20260502103817 | 71 | 168 | 5.2 | 15.6 | 0.00 | 0.00 | 0.00 | 95 | 1010.8 |
| 20260502103540 | 71 | 273 | 6.1 | 15.6 | 0.00 | 0.00 | 0.00 | 95 | 1010.6 |
| 20260502102817 | 71 | 234 | 8.7 | 19.1 | 0.00 | 0.00 | 0.00 | 95 | 1010.5 |
| 20260502102317 | 71 | 281 | 8.7 | 19.1 | 0.00 | 0.00 | 0.00 | 95 | 1010.7 |
| 20260502102045 | 71 | 178 | 8.7 | 15.6 | 0.00 | 0.00 | 0.00 | 95 | 1010.6 |
| 20260502101538 | 70 | 192 | 8.7 | 13.9 | 0.00 | 0.00 | 0.00 | 95 | 1010.5 |
| 20260502101027 | 70 | 175 | 10.4 | 20.0 | 0.00 | 0.00 | 0.00 | 95 | 1010.2 |
| 20260502100526 | 70 | 167 | 9.6 | 20.0 | 0.00 | 0.00 | 0.00 | 95 | 1010.0 |
| 20260502091309 | 69 | 141 | 8.7 | 18.2 | 0.00 | 0.00 | 0.00 | 95 | 1009.9 |
| 20260502090809 | 69 | 155 | 9.6 | 18.2 | 0.00 | 0.00 | 0.00 | 95 | 1009.9 |
| 20260502090309 | 69 | 165 | 10.4 | 21.7 | 0.00 | 0.00 | 0.00 | 95 | 1009.9 |
| 20260502071306 | 68 | 172 | 11.3 | 20.9 | 0.00 | 0.01 | 0.00 | 95 | 1009.9 |
| 20260502070805 | 68 | 188 | 12.2 | 23.5 | 0.00 | 0.01 | 0.00 | 95 | 1009.8 |
| 20260502070304 | 68 | 128 | 12.2 | 23.5 | 0.00 | 0.01 | 0.00 | 95 | 1010.0 |
| 20260502065804 | 68 | 180 | 12.2 | 20.9 | 0.00 | 0.01 | 0.00 | 95 | 1009.9 |
| 20260502065306 | 68 | 153 | 13.0 | 25.2 | 0.00 | 0.01 | 0.00 | 95 | 1010.1 |
| 20260502064804 | 69 | 171 | 12.2 | 25.2 | 0.00 | 0.01 | 0.00 | 95 | 1010.1 |
| 20260502064304 | 69 | 126 | 12.2 | 24.3 | 0.00 | 0.01 | 0.00 | 95 | 1010.0 |
| 20260502063805 | 69 | 122 | 13.0 | 20.9 | 0.00 | 0.01 | 0.00 | 95 | 1009.7 |
| 20260502063304 | 69 | 177 | 13.9 | 25.2 | 0.00 | 0.01 | 0.00 | 95 | 1009.9 |
| 20260502062805 | 69 | 158 | 13.9 | 25.2 | 0.00 | 0.01 | 0.00 | 95 | 1009.6 |
| 20260502062306 | 69 | 193 | 15.6 | 29.5 | 0.00 | 0.01 | 0.00 | 95 | 1009.6 |
| 20260502061804 | 69 | 128 | 15.6 | 29.5 | 0.00 | 0.01 | 0.00 | 95 | 1009.7 |
| 20260502061526 | 69 | 132 | 14.8 | 18.2 | 0.00 | 0.01 | 0.00 | 95 | 1009.7 |
| 20260502060805 | 69 | 152 | 14.8 | 32.2 | 0.00 | 0.01 | 0.00 | 95 | 1009.4 |
| 20260502060304 | 69 | 131 | 13.0 | 32.2 | 0.00 | 0.01 | 0.00 | 95 | 1009.6 |
| 20260502055804 | 69 | 188 | 10.4 | 21.7 | 0.00 | 0.01 | 0.00 | 95 | 1009.6 |
| 20260502055306 | 68 | 121 | 9.6 | 21.7 | 0.00 | 0.01 | 0.00 | 95 | 1009.7 |
| 20260502054804 | 68 | 142 | 9.6 | 20.9 | 0.00 | 0.01 | 0.00 | 95 | 1009.8 |
| 20260502054525 | 68 | 159 | 9.6 | 20.9 | 0.00 | 0.01 | 0.00 | 95 | 1009.9 |
| 20260502053804 | 69 | 130 | 10.4 | 20.9 | 0.00 | 0.01 | 0.00 | 95 | 1009.8 |
| 20260502053304 | 69 | 110 | 13.0 | 26.1 | 0.00 | 0.01 | 0.00 | 95 | 1009.8 |
| 20260502052807 | 69 | 189 | 13.0 | 26.1 | 0.00 | 0.01 | 0.00 | 95 | 1009.5 |
| 20260502052306 | 69 | 107 | 9.6 | 23.5 | 0.00 | 0.01 | 0.00 | 95 | 1009.5 |
| 20260502051805 | 69 | 110 | 10.4 | 22.6 | 0.00 | 0.01 | 0.00 | 95 | 1009.6 |
| 20260502051304 | 69 | 186 | 11.3 | 28.7 | 0.00 | 0.01 | 0.00 | 95 | 1009.6 |
| 20260502051023 | 69 | 101 | 10.4 | 28.7 | 0.00 | 0.01 | 0.00 | 95 | 1009.4 |
| 20260502050304 | 69 | 99 | 10.4 | 20.9 | 0.00 | 0.01 | 0.00 | 95 | 1009.4 |
| 20260502050021 | 69 | 148 | 9.6 | 20.0 | 0.00 | 0.01 | 0.00 | 95 | 1009.4 |
| 20260502045534 | 69 | 153 | 9.6 | 20.9 | 0.00 | 0.01 | 0.00 | 95 | 1009.4 |
| 20260502044804 | 69 | 126 | 11.3 | 20.9 | 0.00 | 0.01 | 0.00 | 95 | 1009.5 |
| 20260502044304 | 69 | 150 | 11.3 | 21.7 | 0.00 | 0.01 | 0.00 | 95 | 1009.4 |
| 20260502043805 | 69 | 147 | 12.2 | 21.7 | 0.00 | 0.01 | 0.00 | 95 | 1009.5 |
| 20260502043304 | 69 | 194 | 10.4 | 22.6 | 0.00 | 0.01 | 0.00 | 95 | 1009.5 |
| 20260502043025 | 69 | 158 | 11.3 | 22.6 | 0.00 | 0.01 | 0.00 | 95 | 1009.5 |
| 20260502042306 | 69 | 146 | 13.0 | 25.2 | 0.00 | 0.01 | 0.00 | 95 | 1009.4 |
| 20260502041805 | 69 | 190 | 11.3 | 25.2 | 0.00 | 0.01 | 0.00 | 95 | 1009.5 |
| 20260502041305 | 69 | 163 | 10.4 | 19.1 | 0.00 | 0.01 | 0.00 | 95 | 1009.3 |
| 20260502040805 | 69 | 132 | 10.4 | 19.1 | 0.00 | 0.01 | 0.00 | 95 | 1009.4 |
| 20260502040305 | 69 | 136 | 9.6 | 17.4 | 0.00 | 0.01 | 0.00 | 95 | 1009.5 |
| 20260502035805 | 69 | 107 | 10.4 | 24.3 | 0.00 | 0.01 | 0.00 | 95 | 1009.4 |
| 20260502035534 | 69 | 124 | 11.3 | 24.3 | 0.00 | 0.01 | 0.00 | 95 | 1009.5 |
| 20260502034805 | 69 | 132 | 11.3 | 26.9 | 0.00 | 0.01 | 0.00 | 95 | 1009.3 |
| 20260502034304 | 69 | 111 | 10.4 | 26.9 | 0.00 | 0.01 | 0.00 | 95 | 1009.4 |
| 20260502034022 | 69 | 204 | 10.4 | 20.0 | 0.00 | 0.01 | 0.00 | 95 | 1009.4 |
| 20260502033522 | 69 | 114 | 11.3 | 20.0 | 0.00 | 0.01 | 0.00 | 95 | 1009.4 |
| 20260502033030 | 69 | 157 | 10.4 | 21.7 | 0.00 | 0.01 | 0.00 | 95 | 1015.6 |
| 20260502032306 | 69 | 136 | 8.7 | 21.7 | 0.00 | 0.01 | 0.00 | 95 | 1009.5 |
| 20260502031805 | 69 | 154 | 11.3 | 26.1 | 0.00 | 0.01 | 0.00 | 95 | 1009.6 |
| 20260502031304 | 69 | 144 | 13.9 | 26.1 | 0.00 | 0.01 | 0.00 | 95 | 1009.5 |
| 20260502030804 | 69 | 146 | 13.0 | 25.2 | 0.00 | 0.01 | 0.00 | 95 | 1009.6 |
| 20260502030305 | 69 | 142 | 13.0 | 24.3 | 0.00 | 0.01 | 0.00 | 95 | 1009.6 |
| 20260502025804 | 70 | 118 | 13.0 | 24.3 | 0.00 | 0.01 | 0.00 | 95 | 1009.7 |
| 20260502025306 | 70 | 127 | 12.2 | 24.3 | 0.00 | 0.01 | 0.00 | 95 | 1009.6 |
| 20260502024804 | 70 | 55 | 13.9 | 26.9 | 0.00 | 0.01 | 0.00 | 95 | 1009.6 |
| 20260502024305 | 70 | 148 | 13.0 | 26.9 | 0.00 | 0.01 | 0.00 | 95 | 1009.7 |
| 20260502023804 | 70 | 205 | 13.0 | 23.5 | 0.00 | 0.01 | 0.00 | 95 | 1009.7 |
| 20260502023305 | 70 | 148 | 12.2 | 23.5 | 0.00 | 0.01 | 0.00 | 95 | 1009.5 |
| 20260502022805 | 70 | 108 | 12.2 | 25.2 | 0.00 | 0.01 | 0.00 | 95 | 1009.5 |
| 20260502022306 | 70 | 160 | 11.3 | 25.2 | 0.00 | 0.01 | 0.00 | 95 | 1009.6 |
| 20260502021804 | 70 | 174 | 10.4 | 20.9 | 0.00 | 0.01 | 0.00 | 94 | 1009.5 |
| 20260502021304 | 70 | 153 | 10.4 | 18.2 | 0.00 | 0.01 | 0.00 | 94 | 1009.7 |
| 20260502021028 | 70 | 104 | 11.3 | 20.9 | 0.00 | 0.01 | 0.00 | 94 | 1009.6 |
| 20260502020305 | 70 | 182 | 12.2 | 20.9 | 0.00 | 0.01 | 0.00 | 94 | 1009.7 |
| 20260502015804 | 70 | 163 | 12.2 | 24.3 | 0.00 | 0.01 | 0.00 | 94 | 1009.6 |
| 20260502015305 | 70 | 162 | 10.4 | 24.3 | 0.00 | 0.01 | 0.00 | 94 | 1009.5 |
| 20260502014805 | 70 | 122 | 9.6 | 20.0 | 0.00 | 0.01 | 0.00 | 94 | 1009.5 |
| 20260502014533 | 70 | 185 | 10.4 | 20.0 | 0.00 | 0.01 | 0.00 | 94 | 1009.6 |
| 20260502013805 | 70 | 131 | 10.4 | 18.2 | 0.00 | 0.01 | 0.00 | 94 | 1009.6 |
| 20260502013305 | 70 | 139 | 9.6 | 18.2 | 0.00 | 0.01 | 0.00 | 94 | 1009.6 |
| 20260502012804 | 70 | 153 | 9.6 | 15.6 | 0.00 | 0.01 | 0.00 | 94 | 1009.6 |
| 20260502012525 | 70 | 166 | 8.7 | 16.5 | 0.00 | 0.01 | 0.00 | 94 | 1009.6 |
| 20260502011804 | 70 | 142 | 8.7 | 16.5 | 0.00 | 0.01 | 0.00 | 94 | 1009.7 |
| 20260502011305 | 70 | 158 | 9.6 | 15.6 | 0.00 | 0.01 | 0.00 | 94 | 1009.7 |
| 20260502010805 | 70 | 123 | 10.4 | 22.6 | 0.00 | 0.01 | 0.00 | 95 | 1009.9 |
| 20260502010304 | 70 | 134 | 8.7 | 22.6 | 0.00 | 0.01 | 0.00 | 95 | 1009.9 |
| 20260502005804 | 70 | 171 | 8.7 | 16.5 | 0.00 | 0.01 | 0.00 | 95 | 1009.9 |
| 20260502005306 | 70 | 147 | 9.6 | 16.5 | 0.00 | 0.01 | 0.00 | 95 | 1010.0 |
| 20260502004804 | 70 | 94 | 8.7 | 18.2 | 0.00 | 0.01 | 0.00 | 94 | 1010.0 |
| 20260502004304 | 71 | 121 | 8.7 | 18.2 | 0.00 | 0.01 | 0.00 | 94 | 1010.1 |
| 20260502004025 | 71 | 162 | 9.6 | 22.6 | 0.00 | 0.01 | 0.00 | 94 | 1010.2 |
| 20260502003531 | 71 | 93 | 9.6 | 22.6 | 0.00 | 0.01 | 0.00 | 94 | 1010.2 |
| 20260502002804 | 71 | 125 | 10.4 | 21.7 | 0.00 | 0.01 | 0.00 | 94 | 1010.4 |
| 20260502002305 | 71 | 112 | 9.6 | 21.7 | 0.00 | 0.01 | 0.00 | 94 | 1010.3 |
| 20260502002028 | 71 | 192 | 9.6 | 18.2 | 0.00 | 0.01 | 0.00 | 94 | 1010.3 |
| 20260502001304 | 71 | 154 | 9.6 | 16.5 | 0.00 | 0.01 | 0.00 | 94 | 1010.5 |
| 20260502000804 | 71 | 155 | 9.6 | 18.2 | 0.00 | 0.01 | 0.00 | 94 | 1010.5 |
| 20260502000304 | 71 | 162 | 8.7 | 18.2 | 0.00 | 0.01 | 0.00 | 94 | 1010.5 |
| 20260501235305 | 71 | 98 | 10.4 | 20.0 | 0.00 | 0.01 | 0.00 | 94 | 1010.7 |
| 20260501234804 | 71 | 142 | 11.3 | 15.6 | 0.00 | 0.01 | 0.00 | 94 | 1010.7 |
| 20260501234304 | 71 | 171 | 12.2 | 22.6 | 0.00 | 0.01 | 0.00 | 94 | 1010.7 |
| 20260501233804 | 71 | 136 | 11.3 | 22.6 | 0.00 | 0.01 | 0.00 | 94 | 1010.7 |
| 20260501233304 | 71 | 160 | 10.4 | 20.9 | 0.00 | 0.01 | 0.00 | 94 | 1010.6 |
| 20260501233022 | 71 | 181 | 11.3 | 20.9 | 0.00 | 0.01 | 0.00 | 94 | 1010.7 |
| 20260501232529 | 71 | 160 | 10.4 | 21.7 | 0.00 | 0.01 | 0.00 | 94 | 1010.7 |
| 20260501231804 | 71 | 103 | 10.4 | 21.7 | 0.00 | 0.01 | 0.00 | 94 | 1010.7 |
| 20260501231304 | 71 | 197 | 9.6 | 18.2 | 0.00 | 0.01 | 0.00 | 94 | 1010.7 |
| 20260501230804 | 71 | 165 | 8.7 | 18.2 | 0.00 | 0.01 | 0.00 | 94 | 1010.8 |
| 20260501230528 | 71 | 174 | 9.6 | 16.5 | 0.00 | 0.01 | 0.00 | 94 | 1010.7 |
| 20260501225805 | 72 | 126 | 8.7 | 15.6 | 0.00 | 0.01 | 0.00 | 94 | 1010.7 |
| 20260501225530 | 72 | 182 | 8.7 | 16.5 | 0.00 | 0.01 | 0.00 | 94 | 1010.7 |
| 20260501224305 | 72 | 130 | 9.6 | 21.7 | 0.00 | 0.01 | 0.00 | 94 | 1010.8 |
| 20260501224028 | 72 | 130 | 11.3 | 21.7 | 0.00 | 0.01 | 0.00 | 94 | 1010.8 |
| 20260501223304 | 72 | 162 | 10.4 | 20.9 | 0.00 | 0.01 | 0.00 | 94 | 1010.9 |
| 20260501223026 | 72 | 198 | 8.7 | 14.8 | 0.00 | 0.01 | 0.00 | 94 | 1010.9 |
| 20260501222305 | 72 | 113 | 7.8 | 14.8 | 0.00 | 0.01 | 0.00 | 94 | 1010.9 |
| 20260501221804 | 72 | 138 | 7.0 | 20.9 | 0.00 | 0.01 | 0.00 | 94 | 1010.9 |
| 20260501221305 | 72 | 185 | 7.8 | 20.9 | 0.00 | 0.01 | 0.00 | 94 | 1011.0 |
| 20260501220804 | 72 | 123 | 9.6 | 20.9 | 0.00 | 0.01 | 0.00 | 94 | 1011.0 |
| 20260501220304 | 73 | 120 | 9.6 | 20.9 | 0.00 | 0.01 | 0.00 | 94 | 1011.0 |
| 20260501215804 | 73 | 176 | 11.3 | 25.2 | 0.00 | 0.01 | 0.01 | 94 | 1011.0 |
| 20260501215305 | 73 | 139 | 10.4 | 25.2 | 0.00 | 0.01 | 0.01 | 94 | 1011.1 |
| 20260501214804 | 73 | 182 | 8.7 | 17.4 | 0.00 | 0.01 | 0.01 | 94 | 1011.2 |
| 20260501214305 | 73 | 146 | 9.6 | 20.9 | 0.00 | 0.01 | 0.01 | 94 | 1011.1 |
| 20260501213804 | 73 | 137 | 10.4 | 20.9 | 0.00 | 0.01 | 0.01 | 94 | 1011.1 |
| 20260501213304 | 73 | 148 | 8.7 | 18.2 | 0.00 | 0.01 | 0.01 | 94 | 1011.1 |
| 20260501212804 | 73 | 114 | 9.6 | 19.1 | 0.00 | 0.01 | 0.01 | 94 | 1011.1 |
| 20260501212306 | 73 | 171 | 9.6 | 19.1 | 0.00 | 0.01 | 0.01 | 94 | 1011.0 |
| 20260501211803 | 73 | 203 | 7.0 | 13.9 | 0.00 | 0.01 | 0.01 | 94 | 1010.9 |
| 20260501211524 | 73 | 136 | 7.0 | 13.9 | 0.00 | 0.01 | 0.01 | 94 | 1010.9 |
| 20260501210803 | 73 | 127 | 6.1 | 14.8 | 0.00 | 0.01 | 0.01 | 94 | 1011.1 |